User: anonymous   Login
Location: Copeville
(33.0796°N, 96.4155°W)
Time: 04:58:35
(UTC+00:00)
Language:

DIWATA 2B (PO-101) - Orbit

View from above orbital plane
View from above orbital plane
View from above satellite
View from above satellite

Ground track
Ground track

The orbit data is extracted from the following two-line orbital elements,

1 43678U 18084H   24109.84550776  .00005364  00000-0  49677-3 0  9991
2 43678  98.0639 266.1358 0008349 219.9807 140.0798 14.94917839298054
Epoch (UTC): 18 April 2024 20:17:31
Eccentricity: 0.0008349
inclination: 98.0639°
perigee height: 577 km
apogee height: 588 km
right ascension of ascending node: 266.1358°
argument of perigee: 219.9807°
revolutions per day: 14.94917839
mean anomaly at epoch: 140.0798°
orbit number at epoch: 29805

The dashed part of the orbit path shows where the satellite is in the earth's shadow,  

DLR